Date String (YYYY-MM-DD hh:mm:ss) UTC,Instrument flags,Ambient pressure (hPa),Sample flow (lpm),Bypass flow (lpm),Sample temperature (°C),Ambient temperature (°C),ASC tube jacket temperature (°C),LED temperature (°C),Box temperature (°C),Sample RH (%),Span deviation,Mass concentration (μg/m³),Mass concentration (μg/m³),Mass concentration (μg/m³)
DateTimeUTC,F1_M11,P_M11,Q1_M11,Q2_M11,T1_M11,T2_M11,T3_M11,T4_M11,T5_M11,U1_M11,ZSPAN_M11,X0_M11,X2_M11,X1_M11
2022-11-17 21:00:00,,0832.4,5.01,0.00,22.3,21.7,00.0,31.1,24.1,11.7,0000.0,0008.46,0004.66,0004.48
2022-11-17 21:01:00,,0832.4,5.01,0.00,22.2,21.5,00.0,31.1,24.1,11.7,0000.0,0008.44,0004.66,0004.48
2022-11-17 21:02:00,,0832.4,5.00,0.00,22.2,21.3,00.0,31.1,24.0,11.7,0000.0,0008.33,0004.66,0004.49
2022-11-17 21:03:00,,0832.4,5.00,0.00,22.2,21.2,00.0,31.1,24.0,11.6,0000.0,0008.24,0004.64,0004.49
2022-11-17 21:04:00,,0832.4,4.98,0.00,22.2,21.1,00.0,31.1,24.0,11.7,0000.0,0008.19,0004.66,0004.50
2022-11-17 21:05:00,,0832.5,5.02,0.00,22.2,21.0,00.0,31.1,24.0,11.8,0000.0,0008.16,0004.67,0004.52
2022-11-17 21:06:00,,0832.5,4.99,0.00,22.2,20.9,00.0,31.1,24.0,11.7,0000.0,0007.74,0004.69,0004.53
2022-11-17 21:07:00,,0832.4,5.00,0.00,22.2,20.9,00.0,31.1,24.0,11.7,0000.0,0007.75,0004.71,0004.54
2022-11-17 21:08:00,,0832.4,5.01,0.00,22.2,20.9,00.0,31.1,24.0,11.7,0000.0,0007.82,0004.74,0004.56
2022-11-17 21:09:00,,0832.3,4.99,0.00,22.2,20.8,00.0,31.1,23.9,11.8,0000.0,0007.88,0004.77,0004.58
2022-11-17 21:10:00,,0832.3,4.99,0.00,22.2,20.8,00.0,31.1,23.9,11.9,0000.0,0007.41,0004.80,0004.59
2022-11-17 21:11:00,,0832.3,5.00,0.00,22.2,20.8,00.0,31.1,23.9,11.9,0000.0,0007.33,0004.80,0004.59
2022-11-17 21:12:00,,0832.4,5.01,0.00,22.1,20.7,00.0,31.1,23.9,11.9,0000.0,0007.34,0004.80,0004.60
2022-11-17 21:13:00,,0832.4,5.01,0.00,22.1,20.7,00.0,31.1,23.9,11.8,0000.0,0007.40,0004.82,0004.60
2022-11-17 21:14:00,,0832.4,5.00,0.00,22.1,20.6,00.0,31.1,23.9,11.6,0000.0,0007.36,0004.80,0004.60
2022-11-17 21:15:00,,0832.3,5.00,0.00,22.1,20.5,00.0,31.1,23.8,11.4,0000.0,0007.30,0004.78,0004.59
2022-11-17 21:16:00,,0832.3,5.00,0.00,22.1,20.6,00.0,31.0,23.8,11.3,0000.0,0007.25,0004.76,0004.58
2022-11-17 21:17:00,,0832.4,5.01,0.00,22.1,21.4,00.0,31.0,24.0,11.2,0000.0,0007.28,0004.77,0004.59
2022-11-17 21:18:00,,0832.3,5.00,0.00,22.2,22.2,00.0,31.0,24.2,11.1,0000.0,0007.31,0004.80,0004.62
2022-11-17 21:19:00,,0832.4,4.99,0.00,22.3,22.1,00.0,31.0,24.2,10.9,0000.0,0007.27,0004.81,0004.64
2022-11-17 21:20:00,,0832.3,5.01,0.00,22.3,21.8,00.0,31.1,24.1,10.9,0000.0,0007.35,0004.84,0004.66
2022-11-17 21:21:00,,0832.4,5.00,0.00,22.3,21.5,00.0,31.1,24.1,10.9,0000.0,0007.29,0004.86,0004.69
2022-11-17 21:22:00,,0832.3,5.00,0.00,22.2,21.3,00.0,31.1,24.0,10.9,0000.0,0007.29,0004.88,0004.72
2022-11-17 21:23:00,,0832.4,5.00,0.00,22.2,21.1,00.0,31.1,24.0,11.0,0000.0,0007.34,0004.90,0004.74
2022-11-17 21:24:00,,0832.3,5.00,0.00,22.2,21.0,00.0,31.1,24.0,10.9,0000.0,0007.34,0004.93,0004.77
2022-11-17 21:25:00,,0832.4,5.00,0.00,22.2,20.9,00.0,31.1,24.0,10.9,0000.0,0007.38,0004.96,0004.80
2022-11-17 21:26:00,,0832.4,5.00,0.00,22.2,20.9,00.0,31.1,24.0,11.0,0000.0,0007.39,0005.00,0004.85
2022-11-17 21:27:00,,0832.3,5.01,0.00,22.2,20.9,00.0,31.1,24.0,10.9,0000.0,0007.41,0005.04,0004.90
2022-11-17 21:28:00,,0832.3,5.00,0.00,22.2,20.9,00.0,31.1,24.0,10.9,0000.0,0007.40,0005.05,0004.92
2022-11-17 21:29:00,,0832.3,5.00,0.00,22.2,20.9,00.0,31.1,24.0,10.9,0000.0,0007.44,0005.07,0004.93
2022-11-17 21:30:00,,0832.2,5.01,0.00,22.2,20.9,00.0,31.1,24.0,10.9,0000.0,0007.50,0005.09,0004.95
2022-11-17 21:31:00,,0832.2,5.00,0.00,22.2,20.9,00.0,31.1,24.0,10.9,0000.0,0007.59,0005.10,0004.97
2022-11-17 21:32:00,,0832.2,5.00,0.00,22.2,20.9,00.0,31.1,24.0,11.0,0000.0,0007.92,0005.09,0004.99
2022-11-17 21:33:00,,0832.3,5.00,0.00,22.2,20.9,00.0,31.1,24.0,11.0,0000.0,0007.92,0005.09,0004.99
2022-11-17 21:34:00,,0832.2,5.00,0.00,22.2,20.8,00.0,31.1,24.0,11.1,0000.0,0007.93,0005.11,0005.01
2022-11-17 21:35:00,,0832.3,5.00,0.00,22.2,20.8,00.0,31.1,24.0,11.2,0000.0,0007.99,0005.12,0005.02
2022-11-17 21:36:00,,0832.4,5.00,0.00,22.2,20.9,00.0,31.1,24.0,11.2,0000.0,0008.07,0005.15,0005.04
2022-11-17 21:37:00,,0832.3,5.01,0.00,22.2,20.9,00.0,31.1,24.0,11.3,0000.0,0008.09,0005.16,0005.05
2022-11-17 21:38:00,,0832.3,5.01,0.00,22.2,20.8,00.0,31.1,24.0,11.4,0000.0,0008.13,0005.18,0005.05
2022-11-17 21:39:00,,0832.3,5.00,0.00,22.2,20.8,00.0,31.1,24.0,11.5,0000.0,0008.25,0005.23,0005.07
2022-11-17 21:40:00,,0832.3,4.99,0.00,22.2,20.8,00.0,31.1,24.0,11.5,0000.0,0008.28,0005.25,0005.09
2022-11-17 21:41:00,,0832.3,4.99,0.00,22.2,20.8,00.0,31.1,23.9,11.5,0000.0,0008.24,0005.27,0005.11
2022-11-17 21:42:00,,0832.3,5.00,0.00,22.1,20.8,00.0,31.1,23.9,11.6,0000.0,0008.15,0005.30,0005.13
2022-11-17 21:43:00,,0832.3,5.01,0.00,22.2,21.5,00.0,31.0,24.1,11.7,0000.0,0007.81,0005.32,0005.13
2022-11-17 21:44:00,,0832.3,5.00,0.00,22.3,22.4,00.0,31.0,24.3,11.6,0000.0,0007.89,0005.36,0005.15
2022-11-17 21:45:00,,0832.3,5.00,0.00,22.4,22.4,00.0,31.1,24.4,11.5,0000.0,0008.49,0005.41,0005.18
2022-11-17 21:46:00,,0832.3,5.01,0.00,22.4,22.0,00.0,31.1,24.3,11.5,0000.0,0008.99,0005.44,0005.20
2022-11-17 21:47:00,,0832.3,5.00,0.00,22.4,21.7,00.0,31.1,24.3,11.5,0000.0,0009.38,0005.45,0005.23
2022-11-17 21:48:00,,0832.3,5.00,0.00,22.4,21.5,00.0,31.2,24.2,11.5,0000.0,0009.39,0005.47,0005.25
2022-11-17 21:49:00,,0832.3,5.00,0.00,22.4,21.4,00.0,31.2,24.2,11.5,0000.0,0009.56,0005.50,0005.26
2022-11-17 21:50:00,,0832.3,4.99,0.00,22.4,21.3,00.0,31.2,24.2,11.5,0000.0,0009.74,0005.48,0005.26
2022-11-17 21:51:00,,0832.4,4.99,0.00,22.4,21.2,00.0,31.2,24.2,11.5,0000.0,0009.70,0005.47,0005.26
2022-11-17 21:52:00,,0832.3,5.01,0.00,22.4,21.2,00.0,31.2,24.2,11.6,0000.0,0009.88,0005.48,0005.26
2022-11-17 21:53:00,,0832.4,5.01,0.00,22.4,21.2,00.0,31.2,24.2,11.6,0000.0,0009.90,0005.46,0005.25
2022-11-17 21:54:00,,0832.3,5.00,0.00,22.4,21.2,00.0,31.2,24.2,11.6,0000.0,0009.92,0005.47,0005.26
2022-11-17 21:55:00,,0832.3,5.00,0.00,22.4,21.2,00.0,31.2,24.2,11.6,0000.0,0009.94,0005.47,0005.26
2022-11-17 21:56:00,,0832.3,5.00,0.00,22.4,21.2,00.0,31.2,24.2,11.6,0000.0,0009.36,0005.44,0005.26
2022-11-17 21:57:00,,0832.4,5.00,0.00,22.4,21.2,00.0,31.2,24.2,11.6,0000.0,0008.81,0005.41,0005.25
2022-11-17 21:58:00,,0832.3,5.00,0.00,22.4,21.2,00.0,31.2,24.2,11.5,0000.0,0008.35,0005.39,0005.23
2022-11-17 21:59:00,,0832.2,5.00,0.00,22.4,21.2,00.0,31.2,24.2,11.5,0000.0,0008.46,0005.41,0005.22
